PST,Max TemperatureF,Mean TemperatureF,Min TemperatureF,Max Dew PointF,MeanDew PointF,Min DewpointF,Max Humidity, Mean Humidity, Min Humidity, Max Sea Level PressureIn, Mean Sea Level PressureIn, Min Sea Level PressureIn, Max VisibilityMiles, Mean VisibilityMiles, Min VisibilityMiles, Max Wind SpeedMPH, Mean Wind SpeedMPH, Max Gust SpeedMPH,PrecipitationIn, CloudCover, Events, WindDirDegrees
2014-2-1,59,46,33,32,28,23,87,54,25,30.16,30.10,30.07,10,10,10,7,4,,0.00,0,,325
2014-2-2,51,44,37,41,35,32,87,66,50,30.00,29.96,29.92,10,10,7,13,5,,0.00,8,Rain,155
2014-2-3,55,46,35,37,36,32,87,66,47,30.06,30.02,29.98,10,10,10,6,4,,0.00,2,,321
2014-2-4,55,42,30,36,33,30,100,72,41,30.17,30.11,30.07,10,10,10,7,1,,0.00,4,,335
2014-2-5,53,42,30,41,35,28,100,72,51,30.21,30.14,30.10,10,10,9,8,5,,0.00,4,,183
2014-2-6,50,47,44,45,44,41,93,87,82,30.05,29.99,29.94,10,8,3,17,8,18,0.00,8,Rain,143
2014-2-7,50,48,46,50,48,46,100,96,87,30.13,30.06,30.02,10,7,2,21,12,25,0.00,8,Rain,155
2014-2-8,55,52,50,55,52,50,100,98,94,30.15,30.11,30.08,10,4,1,24,16,31,0.00,8,Rain,159
2014-2-9,57,56,55,57,56,55,100,100,94,30.16,30.11,30.06,10,4,1,17,14,22,0.00,8,Rain,154
2014-2-10,62,55,48,55,53,48,100,93,72,30.27,30.22,30.14,10,9,6,7,4,,0.00,6,,246
2014-2-11,62,54,46,54,50,46,100,93,63,30.24,30.21,30.17,10,6,0,8,2,,0.00,5,Fog,184
2014-2-12,64,54,44,54,50,45,100,87,68,30.27,30.21,30.16,10,8,4,9,5,,0.00,6,,157
2014-2-13,69,60,50,57,54,50,100,84,60,30.21,30.14,30.09,10,10,10,7,5,,0.00,5,,157
2014-2-14,64,58,51,59,55,52,100,92,68,30.16,30.11,30.05,10,9,3,10,7,,0.00,7,,167
2014-2-15,60,55,50,55,52,50,100,90,77,30.03,30.00,29.95,10,10,10,12,6,,0.00,8,Rain,161
2014-2-16,64,54,44,54,42,34,100,64,32,30.21,30.15,30.08,10,10,10,8,4,,0.00,1,,288
2014-2-17,64,48,33,43,39,34,100,66,34,30.16,30.13,30.09,10,10,10,6,2,,0.00,3,,326
2014-2-18,64,50,37,46,42,37,100,75,40,30.20,30.12,30.06,10,10,10,9,2,,0.00,6,,178
2014-2-19,64,55,46,54,45,30,100,74,36,30.18,30.13,30.08,10,10,10,14,7,21,0.00,4,,335
2014-2-20,64,53,42,39,36,32,87,59,32,30.21,30.16,30.12,10,10,10,10,6,,0.00,2,,330
2014-2-21,68,52,37,41,39,37,100,67,33,30.12,30.04,29.98,10,10,10,6,1,,0.00,1,,8
2014-2-22,71,55,39,43,39,36,100,64,27,30.02,29.96,29.90,10,10,10,5,1,,0.00,0,,318
2014-2-23,71,53,35,45,42,36,100,60,33,30.02,29.98,29.94,10,10,10,5,1,,0.00,0,,291
2014-2-24,73,57,41,45,42,39,100,61,31,30.02,29.96,29.91,10,10,10,5,2,,0.00,1,,292
2014-2-25,73,56,39,48,44,39,100,71,33,29.97,29.92,29.87,10,10,10,7,2,,0.00,2,,212
2014-2-26,64,57,50,55,52,48,100,92,56,29.97,29.86,29.72,10,8,3,24,8,31,0.00,8,Rain,152
2014-2-27,66,57,48,55,50,45,100,86,52,29.91,29.82,29.63,10,9,5,15,9,24,0.00,5,Rain,143
2014-2-28,55,52,48,55,52,46,100,98,77,29.55,29.47,29.42,10,6,2,18,11,24,0.00,7,Rain-Thunderstorm,139